Volver al catálogo

STARLINK-36787

ActivoComunicacionesVLEO
NORAD 68094·PAYLOAD·🇺🇸 United States

Lanzado Mar 4, 2026 desde Vandenberg Space Force Base

Loading…

Próximos Pases (próximas 24 horas)

TLE

ActualizadoSource: CelesTrak SupGP

Época: Sep 15, 2026, 04:02 UTC

1 68094C 26042AB  26258.16854167  .00067544  00000+0  19961-2 0  2583
2 68094  53.1592  14.3044 0001310  96.4707 341.9025 15.34349059    16

Sigue STARLINK-36787 en tiempo real con AllMySat

Download on the App Store